Regional Weather Roundup
Issued by NWS

Home | Current Version | Previous Version | Text Only | Print | Product List | Glossary On
Versions: 1 2 3 4 5 6 7 8 9 10 11 12 13 14 15 16 17 18 19 20 21 22 23 24 25 26 27 28 29 30 31 32 33 34 35 36 37 38 39 40 41 42 43 44 45 46 47 48 49 50
000
ASUS43 KLMK 220202
RWRKY
KENTUCKY REGIONAL WEATHER ROUNDUP
NATIONAL WEATHER SERVICE LOUISVILLE KY
1000 PM EDT THU AUG 21 2014

NOTE "FAIR" INDICATES FEW OR NO CLOUDS BELOW 12,000 FEET
WITH NO SIGNIFICANT WEATHER AND/OR OBSTRUCTIONS TO VISIBILITY.

KYZ001>023-026-027-061>063-070>075-220300-
WESTERN AND SOUTH CENTRAL KENTUCKY

CITY           SKY/WX    TMP DP  RH WIND       PRES   REMARKS
PADUCAH        MOCLDY    84  74  71 S3        30.00R HX  91
HENDERSON      PTCLDY    77  70  78 SW5       29.99R
OWENSBORO      MOCLDY    81  74  79 W5        30.01R
HOPKINSVILLE   NOT AVBL
BOWLING GREEN  PTCLDY    85  70  60 SW7       30.04R
GLASGOW        CLEAR     80  72  75 CALM      30.05R
$$

KYZ024-025-028>034-038-045-046-053-220300-
NORTH CENTRAL KENTUCKY

CITY           SKY/WX    TMP DP  RH WIND       PRES   REMARKS
LOUISVILLE/SDF PTCLDY    83  72  69 S6        30.00R
LOUISVILLE/LOU CLEAR     83  73  72 CALM      30.00S
FORT KNOX      PTCLDY    76  74  92 S2        30.02R
$$

KYZ035>037-039>044-047>052-055>060-089>105-220300-
NORTHEAST KENTUCKY

CITY           SKY/WX    TMP DP  RH WIND       PRES   REMARKS
LEXINGTON      MOCLDY    80  71  74 S6        30.05R
COVINGTON      MOCLDY    76  72  87 S5        30.01S
FRANKFORT      PTCLDY    77  72  84 CALM      30.02R
$$

KYZ054-064>069-076>088-106>120-220300-
SOUTHEAST KENTUCKY

CITY           SKY/WX    TMP DP  RH WIND       PRES   REMARKS
JACKSON        MOCLDY    71  68  90 CALM      30.09R
LONDON         PTCLDY    79  71  76 CALM      30.10R
SOMERSET       MOCLDY    77  73  88 CALM      30.09R
MIDDLESBORO    PTCLDY    75  71  87 CALM      30.11R
MONTICELLO     CLEAR     76  74  93 CALM      30.10R
$$



USA.gov is the U.S. government's official web portal to all federal, state and local government web resources and services.